Grizzly Air Cargo 5283


KDEN
Denver International Airport
Denver, Colorado, US
KSMF
Sacramento International Airport
Sacramento, California, US

Activity Log

Date Flight Route Aircraft Duration
11/14/2019 GRZ5283 FOOOT4 RLG EKR J173 TCH J154 BAM ANAHO SLMMR3 B738 3h 24m

Route Details

Aircraft Information
Primary: Boeing 737-800BCF
Backup: Not Available
Route Data
Distance: 789nm
Sched. Duration: 2h 31m
Avg. Duration: 3h 24m (+93m)
Times Flown: 1
Recm'd Route: FOOOT4 RLG EKR J173 TCH J154 BAM ANAHO SLMMR3
Planned Altitude: 36,000ft
Origin Wx: KDEN 311153Z 21004KT 10SM FEW200 BKN250 13/09 A3012 RMK AO2 SLP132 T01330094 10189 20117 53003
Dest. Wx: KSMF 311153Z 16006KT 10SM CLR 16/12 A2993 RMK AO2 SLP134 T01560122 10189 20156 53000 $
Notes:

Financial History
Total Freight: 44,880lbs
Average Load: 44,880lbs/flt
Fuel Used: 12,765lbs
Avg. Fuel Used: 12,765lbs/flt
Fuel Expense: $13,786
Avg. Fuel Expense: $13,786
Avg. Fuel Cost: $1.08/lbs
Total Gross Income: $68,666
Pilot Pay: $239
Total Expenses: $7,468
Total Revenue: $46,532
Average Revenue: $68,666.40